Location: Bletchingley
(51.2333°N, 0.1000°W)
Time: 10:00:17
(UTC+00:00)

Daily predictions for brighter satellites

Satellite Brightness Start Highest point End
(mag) Time Altitude Azimuth Time Altitude Azimuth Time Altitude Azimuth
Cosmos 2016 Rocket 4.5 18:31:40 10° SSW 18:37:57 70° WNW 18:44:11 10° N
CREW DRAGON DEMO-1 DEB 2.8 18:41:41 10° W 18:44:44 87° N 18:47:47 10° E
USA 102 3.8 18:40:15 10° SSE 18:46:45 79° ENE 18:49:23 10° NNW
USA 229 DEB 4.4 18:42:56 10° WSW 18:49:24 56° NW 18:56:19 10° NE
USA 229 4.4 18:43:01 10° WSW 18:49:29 56° NW 18:56:25 10° NE
Cosmos 1782 Rocket 3.6 18:45:22 10° S 18:49:42 58° E 18:54:05 10° NNE
Cosmos 1975 2.8 18:46:40 10° S 18:50:44 72° E 18:54:49 10° NNE
Cosmos 1025 Rocket 3.8 18:46:59 10° N 18:50:56 32° ENE 18:54:53 10° SE
Cosmos 2233 Rocket 4.0 18:44:42 10° S 18:50:57 85° E 18:57:10 10° N
NOSS 3-2 (C) 4.4 18:44:11 10° NW 18:51:02 48° NNE 18:58:44 10° ESE
CZ-4 R/B 2.5 18:47:32 10° S 18:51:39 51° W 18:55:47 10° NNW
Cosmos 1908 Rocket 3.7 18:47:32 10° SSW 18:51:54 80° WNW 18:56:19 10° N
USA 186 2.7 18:49:39 10° SE 18:52:26 30° ENE 18:55:20 10° N
Meteor 2-11 Rocket 4.4 18:47:25 10° S 18:53:32 74° E 18:59:42 10° NNE
Nadezhda 4 Rocket 4.5 18:51:53 10° N 18:57:34 38° ENE 19:03:13 10° SE
Cosmos 2082 Rocket 4.3 18:57:21 10° N 18:59:59 13° NNE 19:02:36 10° NE
NOSS 3-1 (A) 4.2 18:55:55 10° WSW 19:01:33 56° NW 19:08:14 10° NE
Cosmos 1544 3.8 18:57:58 10° SSW 19:01:35 57° WNW 19:05:12 10° N
Cosmos 1937 Rocket 3.5 18:56:32 10° S 19:01:42 61° ESE 19:06:51 10° NNE
OBJECT-B 2.4 19:01:23 13° E 19:03:00 18° ENE 19:05:20 10° NNE
MOS 1 Rocket 3.3 18:58:43 10° NNE 19:03:10 52° E 19:07:24 10° S
Cosmos 1842 4.0 19:02:05 10° NNW 19:05:54 56° W 19:09:41 10° S
FREGAT/IRIS 3.3 19:05:32 16° ESE 19:06:59 26° ENE 19:09:15 10° N
Cosmos 1674 4.0 19:04:36 10° NNE 19:07:41 22° ENE 19:09:42 15° ESE
Cosmos 2297 Rocket 4.5 19:04:34 10° W 19:09:11 25° NW 19:13:48 10° NNE
Cosmos 1975 Rocket 3.3 19:06:33 10° NNW 19:10:54 74° W 19:15:11 10° S
NOSS 8 (H) 4.1 19:10:20 10° SSW 19:13:24 61° SE 19:16:25 10° NE
NOSS 8 (E) 4.2 19:10:21 10° SW 19:13:30 80° NW 19:16:32 10° NE
In-Cosmos 22 4.1 19:09:34 10° N 19:14:49 59° ENE 19:20:04 10° SSE
NOSS 2-2 (E) 3.5 19:13:56 10° SSW 19:17:16 42° SE 19:21:04 10° NE
Cosmos 1707 2.6 19:16:34 10° N 19:20:26 81° E 19:24:16 10° SSE
Resurs 01 Rocket 2.9 19:19:17 17° ESE 19:21:27 25° ENE 19:25:04 10° N
H-2A R/B 2.5 19:16:50 10° S 19:21:45 63° WSW 19:26:49 10° NNW
ATLAS 2AS CENTAUR R/B 4.5 19:24:48 13° E 19:24:48 13° E 19:26:46 10° ENE
ARGOS 3.3 19:17:34 10° SSE 19:22:55 79° WSW 19:28:21 10° NNW
Lacrosse 4 Rocket 3.8 19:22:23 10° N 19:23:12 10° NNE 19:24:00 10° NNE
CZ-2C R/B 3.0 19:18:20 10° NNE 19:23:36 44° E 19:28:56 10° S
SJ-6B 2.7 19:21:47 12° SSE 19:25:11 58° ENE 19:28:53 10° N
NOSS 2-2 (D) 3.5 19:22:25 10° SSW 19:25:43 39° SE 19:29:26 10° NE
Sich 1 Rocket 3.6 19:23:24 10° S 19:27:53 84° E 19:32:29 10° NNE
MOS 1 4.3 19:24:08 10° SSE 19:29:47 72° ENE 19:35:30 10° NNW
Cosmos 1048 Rocket 4.1 19:24:48 10° NNW 19:30:04 62° ENE 19:34:10 17° SE
ATLAS CENTAUR R/B 3.8 19:29:10 10° WNW 19:31:51 18° NNW 19:34:28 10° NNE
CENTAUR R/B 3.3 19:24:20 10° NW 19:32:03 65° NE 19:38:33 19° ESE
ATLAS 3B R/B 3.6 19:31:44 10° NW 19:37:58 37° NNE 19:42:49 17° E
ARIANE 5 R/B 3.9 19:37:43 20° E 19:38:46 22° ENE 19:42:08 10° N
SL-08 RB Rocket 3.9 19:34:43 10° S 19:39:19 74° WSW 19:43:54 10° NNW
Cosmos 2263 Rocket 2.6 19:34:00 10° SW 19:39:32 67° WNW 19:45:09 10° NNE
USA 238 DEB 3.8 19:32:55 10° NW 19:40:06 84° NE 19:45:38 20° SE
USA 238 3.8 19:33:01 10° NW 19:40:12 83° NE 19:45:43 20° SE
ISS -2.6 19:38:37 10° SSW 19:41:14 26° SSE 19:41:14 26° SSE
Abrixas rocket 2.2 19:39:24 10° WSW 19:42:09 45° S 19:42:31 42° SSE
SJ 16-02 3.7 19:39:42 10° WSW 19:43:25 26° NW 19:47:10 10° N
Cosmos 1513 Rocket 4.4 19:37:19 10° S 19:43:36 85° E 19:49:49 10° N
Cosmos 1844 Rocket 3.1 19:41:45 10° S 19:46:50 38° ESE 19:51:59 10° NE
Okean 2 Rocket 3.0 19:43:31 10° S 19:48:02 87° E 19:52:33 10° N
Lacrosse 5 rocket 2.5 19:47:29 10° W 19:51:39 44° NNW 19:55:14 14° ENE
Cosmos 1464 Rocket 4.0 19:45:37 10° S 19:51:44 88° W 19:57:58 10° N
Okean 1 Rocket 3.7 19:51:22 31° ESE 19:52:27 36° E 19:56:35 10° NNE
Ariane Rocket 3.4 19:51:00 10° S 19:56:01 65° WSW 20:01:06 10° NNW
Cosmos 1092 Rocket 4.0 19:50:05 10° N 19:56:11 61° ENE 20:00:15 22° SSE
Meteor 1-12 Rocket 4.4 19:53:26 10° SSW 19:59:21 82° W 20:05:13 10° NNE
Meteor 1-15 Rocket 4.2 19:54:02 10° S 19:59:31 57° E 20:05:07 10° NNE
Resurs 1-3 3.5 19:57:58 28° SSE 20:00:14 75° ENE 20:04:40 10° N
Cosmos 1300 Rocket 3.8 19:56:39 10° SSW 20:01:02 73° WNW 20:05:29 10° N
Cosmos 494 Rocket 3.9 19:57:49 10° NNW 20:03:06 74° ENE 20:05:36 32° SE
Cosmos 2026 Rocket 4.2 19:57:26 10° N 20:03:41 55° ENE 20:06:56 28° SE
CZ-2C R/B 4.0 20:00:41 10° NNE 20:04:56 42° E 20:05:30 40° ESE
Meteor 2-13 Rocket 4.4 19:58:45 10° N 20:04:57 73° ENE 20:09:01 22° SSE
Cosmos 2298 Rocket 3.9 20:00:13 10° SSW 20:05:31 72° ESE 20:10:52 10° NNE
Cosmos 1833 Rocket 3.7 20:00:50 10° NNW 20:05:53 32° NE 20:07:47 26° E
SPOT 3 Rocket 3.4 20:03:38 26° SSE 20:06:37 79° ENE 20:11:47 10° NNW
NOSS 3-2 (A) 4.2 20:00:59 10° NW 20:08:22 73° SW 20:13:56 23° SSE
MetOp-A 4.4 20:03:47 11° S 20:08:59 66° WSW 20:14:21 10° NNW
NOSS 2-2 (C) 3.1 20:06:40 10° SW 20:10:12 84° NW 20:14:21 10° NE
Cosmos 1536 Rocket 4.2 20:10:35 10° NNW 20:14:55 55° W 20:18:27 15° S
Cosmos 1626 2.5 20:14:37 10° N 20:17:51 48° NE 20:17:51 48° NE
Terra 3.5 20:19:13 18° NE 20:19:13 18° NE 20:22:22 10° NNE
Cosmos 1892 Rocket 4.1 20:16:11 10° N 20:20:06 39° ENE 20:20:06 39° ENE
CREW DRAGON DEMO-1 DEB 3.4 20:17:23 10° W 20:19:51 55° W 20:19:51 55° W
Cosmos 2279 Rocket 4.5 20:20:51 36° E 20:21:32 37° E 20:27:12 10° NNE
USA 186 4.4 20:20:53 10° SW 20:23:13 19° W 20:25:39 10° NW
DMSP B5D2-2 4.3 20:20:41 10° NNE 20:25:59 73° WNW 20:31:15 10° SSW
USA 234 3.3 20:19:58 10° ENE 20:26:23 54° SE 20:32:47 10° SW
Meteor 2-5 Rocket 3.6 20:22:26 10° NNW 20:28:06 88° ENE 20:30:35 36° SSE
Cosmos 2151 Rocket 4.4 20:24:58 10° SSW 20:29:19 52° WNW 20:33:45 10° N
OBJECT-B 2.2 20:34:35 31° WSW 20:35:09 34° W 20:38:10 10° NNW
Cosmos 2150 Rocket 4.2 20:30:18 10° SSW 20:35:41 76° WNW 20:41:11 10° NNE
Cosmos 1805 3.2 20:35:56 82° WSW 20:36:02 83° W 20:39:59 10° N
SPOT 5 3.8 20:40:10 35° ENE 20:40:11 35° ENE 20:44:59 10° N
NOSS 3-2 (C) 4.1 20:35:08 10° NW 20:42:30 70° SW 20:46:12 36° SSE
Cosmos 1674 4.1 20:39:46 10° NNW 20:43:20 36° W 20:44:32 29° SW
Meteor 1-22 Rocket 4.2 20:43:04 49° SSE 20:44:35 68° E 20:50:36 10° NNE
Cosmos 2082 Rocket 3.0 20:40:41 10° NNW 20:45:51 36° NE 20:46:33 34° ENE
Cosmos 1125 Rocket 3.5 20:41:05 10° SSW 20:46:24 87° WNW 20:51:47 10° NNE
Okean 1-7 Rocket 4.0 20:42:45 10° N 20:46:41 51° NE 20:46:41 51° NE
Cosmos 1733 4.0 20:52:17 46° N 20:52:17 46° N 20:55:05 10° N
SL-14 R/B 3.7 20:48:17 10° NNW 20:51:36 61° NNW 20:51:36 61° NNW
COSMOS 2406 3.1 20:47:58 10° NNW 20:53:41 74° ENE 20:54:20 66° ESE
Meteor 1-24 Rocket 3.7 20:49:28 10° NNW 20:54:56 75° W 20:56:22 50° S
CRYOSAT 2 4.2 20:52:00 10° N 20:56:56 87° E 20:57:03 85° SE
ERS-1 Rocket 3.4 20:57:24 49° NE 20:57:24 49° NE 21:01:53 10° N
Resurs 01 Rocket 2.4 20:56:51 42° SW 20:57:42 48° W 21:02:03 10° NNW
Cosmos 2098 Rocket 4.1 20:55:45 10° N 21:03:00 63° ENE 21:03:50 58° ESE
Lacrosse 4 Rocket 2.9 20:59:26 10° NNW 21:02:11 28° NNE 21:02:11 28° NNE
CZ-2C R/B 4.2 20:58:50 10° N 21:03:49 36° WNW 21:08:51 10° SW
Landsat 7 3.8 21:04:41 80° W 21:04:41 80° W 21:09:25 10° NNW
Cosmos 2266 Rocket 4.1 20:59:44 10° N 21:05:35 52° ENE 21:05:35 52° ENE
Exosat Rocket 3.7 21:01:36 10° SW 21:07:00 69° WNW 21:12:01 10° NNE
Cosmos 1766 4.3 21:09:00 44° WNW 21:09:00 44° WNW 21:12:28 10° N
Cosmos 1655 Rocket 3.9 21:05:49 10° N 21:12:05 72° ENE 21:12:30 70° ESE
ATLAS CENTAUR R/B 4.1 21:11:19 10° NNW 21:12:09 11° N 21:12:59 10° NNE
ATLAS 2AS CENTAUR R/B 3.0 21:04:38 10° SSW 21:12:20 57° ESE 21:19:59 10° NE
IGS 5A 4.2 21:13:37 51° NW 21:13:37 51° NW 21:16:58 10° NNW
SPOT 1/Viking Rocket 3.5 21:14:25 82° W 21:14:25 82° W 21:19:35 10° NNW
ARIANE 5 R/B 3.3 21:15:16 51° W 21:15:16 51° W 21:19:12 10° NNW
Cosmos 2278 Rocket 4.0 21:22:33 18° NE 21:22:33 18° NE 21:24:05 10° NE
Cosmos 1844 4.0 21:13:09 10° SW 21:18:48 64° NW 21:24:25 10° NNE
Cosmos 1634 Rocket 4.4 21:19:01 27° SW 21:22:22 60° WNW 21:28:31 10° N
CENTAUR R/B 3.7 21:15:11 10° NW 21:22:53 50° WSW 21:25:44 38° SSW
Cosmos 2285 Rocket 4.5 21:21:46 10° SW 21:27:59 59° WNW 21:34:17 10° NNE
Spot 2 Rocket 3.9 21:28:19 56° W 21:28:19 56° W 21:33:11 10° NNW
ATLAS 3B R/B 2.5 21:22:33 10° NW 21:29:26 90° WSW 21:30:03 76° SE
Cosmos 1844 Rocket 3.6 21:25:20 10° WSW 21:30:40 45° NW 21:36:04 10° NNE
Lacrosse 5 rocket 2.8 21:27:17 10° WNW 21:30:50 39° NNW 21:30:50 39° NNW
Cosmos 909 Rocket 4.0 21:40:26 10° NW 21:46:53 83° N 21:46:53 83° N
Cosmos 1833 Rocket 3.1 21:44:37 10° NW 21:49:28 56° WNW 21:49:28 56° WNW
Cosmos 2251 Rocket 4.2 21:49:08 10° NNW 21:53:17 54° NW 21:53:17 54° NW
Terra 3.0 21:58:06 40° NNW 21:58:06 40° NNW 22:01:10 10° NNW
USA 234 3.3 22:03:05 10° ENE 22:09:35 72° NNW 22:16:07 10° WSW
SPOT 5 4.3 22:19:24 36° WNW 22:19:24 36° WNW 22:23:11 10° NNW
Cosmos 2082 Rocket 3.4 22:24:43 10° NW 22:28:23 38° WNW 22:28:23 38° WNW
NOSS 3-4 (A) 4.2 22:41:29 48° N 22:41:29 48° N 22:46:35 10° NE
NOSS 3-4 (C) 4.2 22:41:40 47° N 22:41:40 47° N 22:46:41 10° NE
Lacrosse 4 Rocket 4.4 22:38:04 10° NW 22:38:29 12° NW 22:38:29 12° NW
CZ-4C R/B 4.3 23:02:00 19° NE 23:02:00 19° NE 23:03:43 10° NE
Cosmos 2278 Rocket 3.6 23:04:22 35° NNW 23:04:22 35° NNW 23:08:17 10° NNE
ATLAS 2AS CENTAUR R/B 3.5 22:59:08 28° WSW 23:03:32 57° NW 23:11:11 10° NE
ATLAS 3B R/B 4.4 23:14:01 10° WNW 23:17:17 22° W 23:17:17 22° W
NOSS 3-1 (C) 4.4 23:21:46 10° NW 23:28:42 55° NE 23:28:49 55° NE
USA 234 4.1 23:45:56 10° ENE 23:54:28 38° NW 23:58:36 10° WNW
